{"data":{"norad_id":50167,"epoch":"2026-05-25T01:25:12.472032Z","epoch_age_seconds":69805,"freshness":"FRESH","line1":"1 50167U 21125M   26145.05917213  .00004859  00000+0  32343-3 0  9999","line2":"2 50167  53.2150 276.2918 0001901  85.9284 274.1925 15.08813541247985","mean_motion":15.08813541,"eccentricity":0.0001901,"inclination_deg":53.215,"raan_deg":276.2918,"arg_perigee_deg":85.9284,"mean_anomaly_deg":274.1925,"bstar":0.00032343,"rev_number":24798,"period_min":95.439228298919,"perigee_km":538.50916028746,"apogee_km":541.13936916031,"semimajor_km":6917.9612647239,"source":"CELESTRAK","updated_at":"2026-05-25T13:38:16.843106Z"}}